This is the latest recevied weather packets stored in our database for station/object W8CEN. If no packets are shown the sender has not sent any weather packets the latest 10 day(s).
| Time | Temp. | Humidity | Pressure | Rain* | Wind** | Luminosity | Snow |
|---|---|---|---|---|---|---|---|
| 1778037703 | 8.89° C | 98% | 987.8 hPa | 1.27 mm | - | 0 W/m² | - |
| 1778037400 | 8.89° C | 98% | 987.9 hPa | 1.27 mm | - | 0 W/m² | - |
| 1778037097 | 8.89° C | 98% | 987.9 hPa | 1.78 mm | - | 0 W/m² | - |
| 1778036796 | 8.89° C | 98% | 988 hPa | 1.78 mm | - | 0 W/m² | - |
| 1778036493 | 8.89° C | 98% | 988.1 hPa | 1.27 mm | - | 0 W/m² | - |
| 1778036189 | 8.89° C | 98% | 988.2 hPa | 1.27 mm | - | 0 W/m² | - |
| 1778035885 | 8.89° C | 98% | 988.1 hPa | 0 mm | - | 0 W/m² | - |
| 1778035583 | 8.89° C | 98% | 988 hPa | 1.78 mm | - | 0 W/m² | - |
| 1778035279 | 8.89° C | 98% | 988.2 hPa | 1.78 mm | - | 0 W/m² | - |
| 1778034975 | 8.89° C | 97% | 987.9 hPa | 0 mm | - | 0 W/m² | - |
| 1778034673 | 8.89° C | 97% | 987.9 hPa | 1.27 mm | - | 0 W/m² | - |
| 1778034370 | 8.89° C | 97% | 987.8 hPa | 3.05 mm | - | 0 W/m² | - |
| 1778034067 | 8.89° C | 97% | 988 hPa | 3.05 mm | - | 0 W/m² | - |
| 1778033765 | 8.89° C | 97% | 988 hPa | 1.27 mm | - | 0 W/m² | - |
| 1778033462 | 8.89° C | 97% | 988.1 hPa | 3.05 mm | - | 0 W/m² | - |
| 1778033159 | 8.89° C | 97% | 987.8 hPa | 3.05 mm | - | 0 W/m² | - |
| 1778032857 | 8.89° C | 97% | 988 hPa | 4.32 mm | - | 0 W/m² | - |
| 1778032554 | 8.89° C | 97% | 987.7 hPa | 4.83 mm | - | 0 W/m² | - |
| 1778032251 | 8.89° C | 97% | 987.8 hPa | 3.05 mm | - | 0 W/m² | - |
| 1778031948 | 8.89° C | 97% | 987.6 hPa | 3.05 mm | - | 0 W/m² | - |
| 1778031644 | 8.89° C | 97% | 987.5 hPa | 3.05 mm | - | 0 W/m² | - |
| 1778031342 | 9.44° C | 97% | 987.6 hPa | 1.78 mm | - | 0 W/m² | - |
| 1778031038 | 9.44° C | 97% | 987.7 hPa | 1.27 mm | - | 0 W/m² | - |
| 1778030735 | 8.89° C | 97% | 987.6 hPa | 1.27 mm | - | 0 W/m² | - |
| 1778030432 | 9.44° C | 97% | 987.5 hPa | 1.78 mm | - | 0 W/m² | - |
* Rain latest hour (hover to see other rain measurements)
** Current wind speed in m/s (hover to see current wind gust speed)